Regional Weather Roundup
Issued by NWS Newport/Morehead, NC

Current Version | Previous Version | Graphics & Text | Print | Product List | Glossary On
Versions: 1 2 3 4 5 6 7 8 9 10 11 12 13 14 15 16 17 18 19 20 21 22 23 24 25 26 27 28 29 30 31 32 33 34 35 36 37 38 39 40 41 42 43 44 45 46 47 48 49 50
000 ASUS42 KMHX 191525 RWRMHX WEATHER ROUNDUP FOR EASTERN NORTH CAROLINA NATIONAL WEATHER SERVICE NEWPORT/MOREHEAD CITY NC 1100 AM EDT THU OCT 19 2017 NOTE: "FAIR" INDICATES FEW OR NO CLOUDS BELOW 12,000 FEET WITH NO SIGNIFICANT WEATHER AND/OR OBSTRUCTIONS TO VISIBILITY NCZ015>017-031-032-045>047-102-103-191600- NORTH COAST CITY SKY/WX TMP DP RH WIND PRES REMARKS EDENTON SUNNY 73 62 68 CALM 30.30S ELIZABETH CITY SUNNY 71 60 68 E6 30.29S KITTY HAWK SUNNY 71 59 66 CALM 30.27S MANTEO SUNNY N/A N/A N/A E9 30.29S $$ NCZ045>047-081-094-103-104-191600- CENTRAL COAST CITY SKY/WX TMP DP RH WIND PRES REMARKS FRISCO SUNNY 75 62 64 NE9 30.27S $$ NCZ095-097-098-100-101-191600- SOUTHERN COAST CITY SKY/WX TMP DP RH WIND PRES REMARKS BEAUFORT SUNNY 73 64 73 NE9 30.26F CEDAR ISLAND NOT AVBL JACKSONVILLE SUNNY 73 61 65 NE7 30.27S PINEY ISLAND N/A N/A N/A N/A NE12 30.26F WILMINGTON SUNNY 73 59 61 NE10 30.27S $$ NCZ011>013-027>030-043-044-078>080-089-090>093-098-191600- COASTAL PLAIN CITY SKY/WX TMP DP RH WIND PRES REMARKS AHOSKIE SUNNY 66 54 66 CALM 30.31S CLINTON SUNNY 69 60 71 NE3 30.31S ELIZABETHTOWN NOT AVBL GOLDSBORO SUNNY 68 58 71 N5 30.29R GREENVILLE SUNNY 68 59 73 CALM 30.30S HAVELOCK SUNNY 73 61 65 NE14 30.28S KENANSVILLE SUNNY 68 57 68 NE3 30.30S KINSTON SUNNY 68 57 68 NE5 30.30S NEW BERN SUNNY 72 60 66 NE7 30.29S RICHLANDS SUNNY 71 60 68 NE6 30.29S ROCKY MOUNT SUNNY 66 56 70 CALM 30.32R WASHINGTON SUNNY 70 60 69 CALM 30.29S WHITEVILLE SUNNY 69 58 68 N3 30.28S $$ AMZ130-135-150-152-154-156-158-170-250-252-270-ANZ085-086-088-633-658-670-191600- MARINE OBSERVATIONS STATION/POSITION TIME TEMP WIND PRES WAVE SWELL AIR SEA DIR/SP/G HT/PER HT/PER (UTC) (F) (DEG/KT/KT) (MB) (FT/S) (FT/S) CHESAPEAKE LIGHT NOT AVBL 64 E VA BEACH 1450 68 67 100/ 8/ 10 1025.9 4/ 9 3/ 9 DUCK 1500 71 69 90/ 8/ 10 1025.0 2 E DUCK 1500 69 N/A 3/ 9 2/11 OREGON INLET 1500 70 65 60/ 9/ 13 1025.0 13E OREGON INLT 1448 71 N/A 4/ 9 3/ 9 HATTERAS CG 1500 71 68 50/ 10/ 14 1024.7 DIAMOND BUOY 1450 74 81 30/ 14/ 17 1024.3 5/10 3/10 CAPE LOOKOUT 1500 71 30/ 14/ 15 1024.4 BEAUFORT LAB 1500 72 69 30/ 7/ 12 1025.0 30 SE NEW RVR IN 1508 73 50/ 16/ 21 1024.0 30 SE NEW RVR IN NOT AVBL 27 SE WRIGHTSVLE 1508 73 76 70/ 16/ 23 1023.9 5 SE WRIGHTSVLE 1508 71 74 50/ 14/ 21 1024.8 225 S CAPE HAT 1450 77 80 50/ 19/ 23 1020.5 8/ 8 41 SE CHARLESTON 1510 75 80 40/ 17/ 21 1023.2 $$

USA.gov is the U.S. government's official web portal to all federal, state and local government web resources and services.